Cortez, CO

4:25 PM MST on January 20, 2018 (GMT -0700)
Cortez Municipal

Weather History for KCEZ - October, 2013

Change the Weather History Date:

Saturday, October 12, 2013

  Actual Average Record
Temperature  
Mean Temperature 46 °F 50 °F  
Max Temperature 62 °F 68 °F 80 °F (2015)
Min Temperature 29 °F 33 °F 21 °F (1997)
Degree Days  
Heating Degree Days 19 15  
Month to date heating degree days 191 155  
Since 1 July heating degree days 308 327  
Cooling Degree Days 0 0  
Month to date cooling degree days 0 0  
Year to date cooling degree days 667 426  
Moisture  
Dew Point 31 °F    
Average Humidity 60    
Maximum Humidity 92    
Minimum Humidity 27    
Precipitation  
Precipitation 0.00 in 0.05 in 0.19 in (2012)
Month to date precipitation 0.74 0.63  
Year to date precipitation 12.11 10.85  
Sea Level Pressure  
Sea Level Pressure 30.07 in    
Wind  
Wind Speed 3 mph (SE)    
Max Wind Speed 17 mph    
Max Gust Speed 23 mph    
Visibility 10 miles    
Events      
T = Trace of Precipitation, MM = Missing Value Source: NWS Daily Summary

Daily Weather History Graph

Daily Weather History Graph

Search for Another Location

Airport or City:

Trip Planner

Search our weather history database for the weather conditions in past years. The results will help you decide how hot, cold, wet, or windy it might be!

Date:

Astronomy

Oct. 12, 2013 Rise Set
Actual Time 7:19 AM MDT 6:41 PM MDT
Civil Twilight 6:53 AM MDT 7:07 PM MDT
Nautical Twilight 6:23 AM MDT 7:37 PM MDT
Astronomical Twilight 5:53 AM MDT 8:07 PM MDT
Moon 2:45 PM MDT (10/12) 12:34 AM MDT (10/12)
Length of Visible Light 12h 13m
Length of Day
11h 21m
First Quarter, 59% of the Moon is Illuminated
Oct 12
First Quarter
Oct 18
Full
Oct 26
Last Quarter
Nov 3
New
Nov 9
First Quarter

Hourly Weather History & Observations

Time (MDT) Temp. Windchill Dew Point Humidity Pressure Visibility Wind Dir Wind Speed Gust Speed Precip Events Conditions
12:53 AM 35.1 °F - 32.0 °F 89% 30.08 in 10.0 mi Calm Calm - N/A   Clear
1:53 AM 33.1 °F 30.0 °F 30.0 °F 89% 30.09 in 10.0 mi East 3.5 mph - N/A   Clear
2:53 AM 33.1 °F - 30.0 °F 89% 30.10 in 10.0 mi Calm Calm - N/A   Clear
3:53 AM 30.9 °F 26.2 °F 28.0 °F 89% 30.09 in 10.0 mi NE 4.6 mph - N/A   Clear
4:53 AM 32.0 °F - 28.9 °F 88% 30.08 in 10.0 mi Calm Calm - N/A   Clear
5:53 AM 30.0 °F - 27.0 °F 88% 30.10 in 10.0 mi Calm Calm - N/A   Clear
6:53 AM 30.0 °F - 27.0 °F 88% 30.14 in 10.0 mi Calm Calm - N/A   Clear
7:53 AM 30.0 °F - 28.0 °F 92% 30.18 in 10.0 mi Calm Calm - N/A   Clear
8:53 AM 37.0 °F - 33.1 °F 86% 30.17 in 10.0 mi Calm Calm - N/A   Clear
9:53 AM 45.0 °F - 35.1 °F 68% 30.15 in 10.0 mi Calm Calm - N/A   Clear
10:53 AM 51.1 °F - 36.0 °F 56% 30.12 in 10.0 mi Calm Calm - N/A   Clear
11:53 AM 54.0 °F - 35.1 °F 49% 30.10 in 10.0 mi Calm Calm - N/A   Clear
12:53 PM 57.9 °F - 33.1 °F 39% 30.07 in 10.0 mi SE 8.1 mph 18.4 mph N/A   Mostly Cloudy
1:53 PM 59.0 °F - 32.0 °F 36% 30.04 in 10.0 mi SSW 8.1 mph - N/A   Partly Cloudy
2:53 PM 62.1 °F - 32.0 °F 32% 30.01 in 10.0 mi South 10.4 mph 16.1 mph N/A   Partly Cloudy
3:53 PM 61.0 °F - 28.9 °F 30% 30.01 in 10.0 mi South 6.9 mph 17.3 mph N/A   Clear
4:53 PM 61.0 °F - 27.0 °F 27% 30.01 in 10.0 mi South 13.8 mph 18.4 mph N/A   Clear
5:53 PM 59.0 °F - 28.0 °F 31% 30.01 in 10.0 mi Variable 5.8 mph - N/A   Clear
6:53 PM 52.0 °F - 30.9 °F 45% 30.04 in 10.0 mi East 4.6 mph - N/A   Clear
7:53 PM 48.0 °F - 32.0 °F 54% 30.05 in 10.0 mi Calm Calm - N/A   Clear
8:53 PM 44.1 °F - 34.0 °F 68% 30.05 in 10.0 mi Calm Calm - N/A   Clear
9:53 PM 39.9 °F - 33.1 °F 77% 30.04 in 10.0 mi Calm Calm - N/A   Clear
10:53 PM 41.0 °F - 32.0 °F 70% 30.02 in 10.0 mi Calm Calm - N/A   Clear
11:53 PM 39.9 °F 37.8 °F 32.0 °F 73% 30.01 in 10.0 mi Variable 3.5 mph - N/A   Clear